Location: Unspecified
(0.0000°N, 0.0000°E)
Time: 03:02:22
(UTC+00:00)

Vanguard 1 - Pass Details

Date: 13 December 2023
Orbit: 653 x 3826 km, 34.3° (Epoch: 22 February)

Event Time Altitude Azimuth Distance (km) Brightness Sun altitude
Rises 17:14:18 0° 317° (NW) 5,213 14.1 9.2°
Reaches altitude 10° 17:21:04 10° 344° (NNW) 4,978 13.6 7.6°
Maximum altitude 17:26:39 13° 7° (N) 5,304 13.5 6.3°
Drops below altitude 10° 17:33:17 10° 29° (NNE) 6,079 13.6 4.8°
Sets 17:44:33 0° 54° (NE) 7,737 14.0 2.2°
